Location: Poughquag
(41.6090°N, 73.6820°W)
Time: 10:37:50
(UTC-05:00)

Vanguard 1 - Pass Details

Date: 08 December 2023
Orbit: 653 x 3826 km, 34.3° (Epoch: 25 February)

Event Time Altitude Azimuth Distance (km) Brightness Sun altitude
Rises 17:11:37 0° 240° (WSW) 5,093 16.0 -8.7°
Reaches altitude 10° 17:14:25 10° 236° (WSW) 4,429 14.9 -9.2°
Maximum altitude 17:27:28 61° 160° (SSE) 3,209 12.6 -11.5°
Enters shadow 17:46:56 14° 89° (E) 6,490 13.6 -14.9°
Drops below altitude 10° 17:48:56 10° 88° (E) 6,882 - -15.3°
Sets 17:54:37 0° 86° (E) 7,970 - -16.3°
